When you browse on this site, cookies collect data to enhance your experience and personalize the content and advertising you see.
Visit our Privacy Policy to learn more. By continuing to use the site, you agree to this use of cookies and data.
  • în România
  • Lista ţărilor
  • Pe 7 zile
  • Temperatura apei
  • Meteo pe hartă
  • Widget-uri
  • user-avatar
    Intrare

    Meteo pe oră la Saint-Quentin

    Astăzi, 1 Iunie, Luni

    Timp Temperatura Precipitaţii Vânt Presiune Umiditate
    00:00 +11°C° 0 mm 3 m/s 756 mmHg 81%
    01:00 +11°C° 0 mm 3 m/s 756 mmHg 81%
    02:00 +10°C° 0 mm 3 m/s 756 mmHg 81%
    03:00 +10°C° 0 mm 3 m/s 755 mmHg 80%
    04:00 +11°C° 0 mm 3 m/s 756 mmHg 79%
    05:00 +13°C° 0 mm 2 m/s 756 mmHg 77%
    06:00 +15°C° 0 mm 2 m/s 756 mmHg 74%
    07:00 +17°C° 0 mm 3 m/s 756 mmHg 70%
    08:00 +18°C° 0 mm 3 m/s 756 mmHg 66%
    09:00 +20°C° 0 mm 4 m/s 756 mmHg 61%
    10:00 +21°C° 0 mm 4 m/s 756 mmHg 59%
    11:00 +22°C° 0 mm 4 m/s 756 mmHg 57%
    12:00 +23°C° 0 mm 4 m/s 756 mmHg 55%
    13:00 +25°C° 0 mm 4 m/s 756 mmHg 55%
    14:00 +25°C° 0 mm 4 m/s 755 mmHg 55%
    15:00 +26°C° 0 mm 4 m/s 755 mmHg 55%
    16:00 +25°C° 0 mm 3 m/s 755 mmHg 60%
    17:00 +24°C° 0 mm 3 m/s 755 mmHg 65%
    18:00 +24°C° 0 mm 2 m/s 755 mmHg 71%
    19:00 +21°C° 0 mm 2 m/s 755 mmHg 73%
    20:00 +19°C° 0 mm 3 m/s 755 mmHg 76%
    21:00 +17°C° 0 mm 3 m/s 756 mmHg 79%
    22:00 +17°C° 0 mm 3 m/s 755 mmHg 79%
    23:00 +16°C° 0 mm 3 m/s 755 mmHg 79%

    Mâine, 2 Iunie, Marţi

    Timp Temperatura Precipitaţii Vânt Presiune Umiditate
    00:00 +14°C° 0 mm 3 m/s 755 mmHg 79%
    01:00 +15°C° 0 mm 2 m/s 755 mmHg 80%
    02:00 +14°C° 0 mm 2 m/s 755 mmHg 81%
    03:00 +14°C° 0 mm 2 m/s 755 mmHg 81%
    04:00 +15°C° 0 mm 2 m/s 755 mmHg 80%
    05:00 +16°C° 0 mm 2 m/s 755 mmHg 79%
    06:00 +18°C° 0 mm 1 m/s 755 mmHg 78%
    07:00 +18°C° 0 mm 2 m/s 755 mmHg 73%
    08:00 +20°C° 0 mm 2 m/s 755 mmHg 68%
    09:00 +23°C° 0 mm 2 m/s 755 mmHg 62%
    10:00 +24°C° 0 mm 2 m/s 754 mmHg 59%
    11:00 +25°C° 0 mm 2 m/s 754 mmHg 55%
    12:00 +26°C° 0 mm 2 m/s 754 mmHg 51%
    13:00 +26°C° 0 mm 2 m/s 754 mmHg 51%
    14:00 +26°C° 0 mm 2 m/s 753 mmHg 51%
    15:00 +26°C° 0 mm 1 m/s 753 mmHg 51%
    16:00 +25°C° 0 mm 2 m/s 752 mmHg 57%
    17:00 +24°C° 0 mm 3 m/s 752 mmHg 63%
    18:00 +22°C° 0 mm 4 m/s 752 mmHg 68%
    19:00 +20°C° 0 mm 3 m/s 751 mmHg 71%
    20:00 +17°C° 0 mm 3 m/s 751 mmHg 74%
    21:00 +14°C° 0 mm 3 m/s 751 mmHg 76%
    22:00 +15°C° 0 mm 2 m/s 751 mmHg 79%
    23:00 +14°C° 0 mm 2 m/s 750 mmHg 82%

    Poimâine, 3 Iunie, Miercuri

    Timp Temperatura Precipitaţii Vânt Presiune Umiditate
    00:00 +13°C° 0 mm 2 m/s 750 mmHg 86%
    01:00 +13°C° 0 mm 2 m/s 749 mmHg 86%
    02:00 +12°C° 0 mm 1 m/s 749 mmHg 86%
    03:00 +12°C° 0 mm 1 m/s 748 mmHg 86%
    04:00 +13°C° 0 mm 1 m/s 748 mmHg 84%
    05:00 +14°C° 0 mm 1 m/s 748 mmHg 81%
    06:00 +15°C° 0 mm 2 m/s 747 mmHg 78%
    07:00 +16°C° 0.1 mm 2 m/s 747 mmHg 76%
    08:00 +17°C° 0.1 mm 2 m/s 747 mmHg 73%
    09:00 +19°C° 0.1 mm 2 m/s 747 mmHg 70%
    10:00 +20°C° 0.2 mm 1 m/s 746 mmHg 70%
    11:00 +21°C° 0.2 mm 1 m/s 746 mmHg 69%
    12:00 +21°C° 0.2 mm 1 m/s 745 mmHg 69%
    13:00 +21°C° 0.6 mm 1 m/s 745 mmHg 71%
    14:00 +20°C° 0.6 mm 2 m/s 744 mmHg 74%
    15:00 +19°C° 0.6 mm 2 m/s 744 mmHg 77%
    16:00 +18°C° 0.6 mm 2 m/s 743 mmHg 81%
    17:00 +17°C° 0.6 mm 3 m/s 743 mmHg 85%
    18:00 +16°C° 0.6 mm 3 m/s 743 mmHg 89%
    19:00 +14°C° 0.1 mm 3 m/s 743 mmHg 90%
    20:00 +14°C° 0.1 mm 3 m/s 743 mmHg 91%
    21:00 +13°C° 0.1 mm 3 m/s 743 mmHg 92%
    22:00 +13°C° 0 mm 3 m/s 743 mmHg 93%
    23:00 +12°C° 0 mm 3 m/s 742 mmHg 94%

    4 Iunie, Joi

    Timp Temperatura Precipitaţii Vânt Presiune Umiditate
    00:00 +12°C° 0 mm 3 m/s 742 mmHg 96%
    01:00 +12°C° 0.4 mm 3 m/s 742 mmHg 96%
    02:00 +12°C° 0.4 mm 3 m/s 741 mmHg 96%
    03:00 +12°C° 0.4 mm 3 m/s 741 mmHg 95%
    04:00 +12°C° 0.1 mm 3 m/s 741 mmHg 95%
    05:00 +12°C° 0.1 mm 3 m/s 741 mmHg 95%
    06:00 +12°C° 0.1 mm 4 m/s 741 mmHg 95%
    07:00 +12°C° 0.1 mm 4 m/s 741 mmHg 94%
    08:00 +12°C° 0.1 mm 5 m/s 741 mmHg 93%
    09:00 +11°C° 0.1 mm 6 m/s 741 mmHg 92%
    10:00 +11°C° 0.3 mm 6 m/s 741 mmHg 91%
    11:00 +11°C° 0.3 mm 6 m/s 741 mmHg 90%
    12:00 +11°C° 0.3 mm 7 m/s 742 mmHg 89%
    13:00 +11°C° 0.1 mm 6 m/s 742 mmHg 86%
    14:00 +11°C° 0.1 mm 6 m/s 742 mmHg 82%
    15:00 +11°C° 0.1 mm 6 m/s 742 mmHg 79%
    16:00 +11°C° 0.1 mm 6 m/s 742 mmHg 77%
    17:00 +11°C° 0.1 mm 6 m/s 743 mmHg 75%
    18:00 +10°C° 0.1 mm 5 m/s 743 mmHg 73%
    19:00 +10°C° 0 mm 4 m/s 743 mmHg 77%
    20:00 +7°C° 0 mm 4 m/s 744 mmHg 81%
    21:00 +7°C° 0 mm 3 m/s 744 mmHg 84%
    22:00 +5°C° 0 mm 3 m/s 744 mmHg 87%
    23:00 +5°C° 0 mm 3 m/s 744 mmHg 89%

    5 Iunie, Vineri

    Timp Temperatura Precipitaţii Vânt Presiune Umiditate
    00:00 +4°C° 0 mm 3 m/s 744 mmHg 91%
    01:00 +4°C° 0 mm 3 m/s 744 mmHg 92%
    02:00 +4°C° 0 mm 3 m/s 744 mmHg 93%
    03:00 +4°C° 0 mm 3 m/s 744 mmHg 93%
    04:00 +5°C° 0 mm 3 m/s 744 mmHg 90%
    05:00 +8°C° 0 mm 3 m/s 744 mmHg 88%
    06:00 +8°C° 0 mm 4 m/s 744 mmHg 85%
    07:00 +11°C° 0.2 mm 4 m/s 744 mmHg 80%
    08:00 +12°C° 0.2 mm 5 m/s 744 mmHg 75%
    09:00 +14°C° 0.2 mm 5 m/s 744 mmHg 70%
    10:00 +15°C° 0.3 mm 6 m/s 744 mmHg 68%
    11:00 +15°C° 0.3 mm 6 m/s 744 mmHg 66%
    12:00 +16°C° 0.3 mm 6 m/s 744 mmHg 64%
    13:00 +15°C° 0.2 mm 6 m/s 744 mmHg 70%
    14:00 +14°C° 0.2 mm 6 m/s 744 mmHg 76%
    15:00 +13°C° 0.2 mm 5 m/s 744 mmHg 82%
    16:00 +13°C° 0 mm 5 m/s 744 mmHg 82%
    17:00 +13°C° 0 mm 5 m/s 744 mmHg 83%
    18:00 +13°C° 0 mm 5 m/s 744 mmHg 83%
    19:00 +13°C° 0.1 mm 5 m/s 744 mmHg 83%
    20:00 +13°C° 0.1 mm 5 m/s 744 mmHg 84%
    21:00 +13°C° 0.1 mm 6 m/s 744 mmHg 84%
    22:00 +13°C° 0.2 mm 6 m/s 745 mmHg 86%
    23:00 +13°C° 0.2 mm 6 m/s 745 mmHg 88%

    6 Iunie, Sâmbătă

    Timp Temperatura Precipitaţii Vânt Presiune Umiditate
    00:00 +11°C° 0.2 mm 6 m/s 745 mmHg 90%
    01:00 +12°C° 0.1 mm 5 m/s 745 mmHg 90%
    02:00 +11°C° 0.1 mm 4 m/s 745 mmHg 90%
    03:00 +11°C° 0.1 mm 4 m/s 745 mmHg 91%
    04:00 +11°C° 0 mm 4 m/s 746 mmHg 89%
    05:00 +11°C° 0 mm 4 m/s 746 mmHg 88%
    06:00 +12°C° 0 mm 4 m/s 746 mmHg 86%
    07:00 +13°C° 0.1 mm 5 m/s 746 mmHg 80%
    08:00 +13°C° 0.1 mm 5 m/s 747 mmHg 73%
    09:00 +14°C° 0.1 mm 6 m/s 747 mmHg 67%
    10:00 +15°C° 0 mm 6 m/s 747 mmHg 66%
    11:00 +15°C° 0 mm 6 m/s 747 mmHg 64%
    12:00 +15°C° 0 mm 6 m/s 747 mmHg 62%
    13:00 +15°C° 0 mm 6 m/s 747 mmHg 61%
    14:00 +15°C° 0 mm 6 m/s 747 mmHg 60%
    15:00 +15°C° 0 mm 5 m/s 748 mmHg 59%
    16:00 +15°C° 0 mm 5 m/s 748 mmHg 62%
    17:00 +14°C° 0 mm 4 m/s 748 mmHg 66%
    18:00 +14°C° 0 mm 3 m/s 748 mmHg 69%
    19:00 +12°C° 0 mm 3 m/s 748 mmHg 74%
    20:00 +10°C° 0 mm 3 m/s 748 mmHg 80%
    21:00 +8°C° 0 mm 2 m/s 748 mmHg 86%
    22:00 +8°C° 0 mm 2 m/s 748 mmHg 88%
    23:00 +7°C° 0 mm 2 m/s 749 mmHg 91%
    Arată mai mult